Weather History for Kotzebue, AK

Change the Weather History Date:

Friday, March 1, 2013

  Actual Average Record
Temperature  
Mean Temperature -23 °F -  
Max Temperature -15 °F - 33 °F (1981)
Min Temperature -30 °F -7 °F -48 °F (1956)
Degree Days  
Heating Degree Days 88 65  
Month to date heating degree days 88 65  
Since 1 July heating degree days 10374 10307  
Cooling Degree Days 0    
Month to date cooling degree days 0  
Year to date cooling degree days 0  
Moisture  
Dew Point -28 °F    
Average Humidity 0    
Maximum Humidity 0    
Minimum Humidity 0    
Precipitation  
Precipitation 0.00 in 0.02 in 0.21 in (1954)
Month to date precipitation 0.00 0.02  
Year to date precipitation 2.06 1.30  
Snow  
Snow 0.00 in 0.30 in 3.50 in (2006)
Month to date snowfall 0.0 0.3  
Since 1 July snowfall 24.3 47.9  
Snow Depth 10.00 in    
Sea Level Pressure  
Sea Level Pressure 30.03 in    
Wind  
Wind Speed 7 mph (West)    
Max Wind Speed 15 mph    
Max Gust Speed 17 mph    
Visibility 8 miles    
Events      
T = Trace of Precipitation, MM = Missing Value Source: NWS Daily Summary

Daily Weather History Graph

Daily Weather History Graph

Search for Another Location

Airport:

Trip Planner

Search our weather history database for the weather conditions in past years. The results will help you decide how hot, cold, wet, or windy it might be!

Date:

Astronomy

Mar. 01, 2013 Rise Set
Actual Time 9:03 AM AKST 7:03 PM AKST
Civil Twilight 8:10 AM AKST 7:56 PM AKST
Nautical Twilight 7:09 AM AKST 8:58 PM AKST
Astronomical Twilight 6:05 AM AKST 10:02 PM AKST
Moon 12:43 AM AKST (3/1) 8:47 AM AKST (3/1)
Length of Visible Light 11h 46m
Length of Day
9h 59m
Waning Gibbous, 82% of the Moon is Illuminated
Mar 1
Waning Gibbous
Mar 4
Last Quarter
Mar 11
New
Mar 19
First Quarter
Mar 27
Full

Hourly Weather History & Observations

Time (AKST) Temp. Windchill Dew Point Humidity Pressure Visibility Wind Dir Wind Speed Gust Speed Precip Events Conditions
12:53 AM -17.0 °F -34.8 °F -22.0 °F 78% 29.82 in 7.0 mi West 8.1 mph - N/A   Partly Cloudy
1:53 AM -20.0 °F -39.9 °F -24.0 °F 82% 29.85 in 10.0 mi West 9.2 mph - N/A   Partly Cloudy
3:53 AM -18.9 °F -38.6 °F -24.0 °F 78% 29.91 in 5.0 mi West 9.2 mph - N/A   Overcast
4:53 AM -20.0 °F -43.2 °F -25.1 °F 78% 29.91 in 2.5 mi West 12.7 mph - N/A   Overcast
4:58 AM -20.2 °F -43.4 °F -25.6 °F 76% 29.92 in 3.0 mi West 12.7 mph - N/A   Mostly Cloudy
5:53 AM -23.1 °F -47.1 °F -27.9 °F 78% 29.94 in 5.0 mi West 12.7 mph - N/A   Partly Cloudy
6:50 AM -25.6 °F -49.2 °F -29.2 °F 83% 29.96 in 2.0 mi West 11.5 mph - N/A   Clear
6:53 AM -25.1 °F -48.5 °F -29.0 °F 82% 29.96 in 2.0 mi West 11.5 mph - N/A   Clear
7:00 AM -23.8 °F -46.9 °F -29.2 °F 76% 29.95 in 4.0 mi West 11.5 mph - N/A   Partly Cloudy
7:53 AM -26.0 °F -48.5 °F -31.0 °F 77% 29.99 in 5.0 mi West 10.4 mph - N/A   Clear
8:53 AM -27.9 °F -49.6 °F -32.1 °F 81% 30.00 in 5.0 mi West 9.2 mph - N/A   Clear
9:53 AM -27.9 °F -42.5 °F -33.0 °F 77% 30.03 in 10.0 mi WNW 4.6 mph - N/A   Clear
10:02 AM -27.4 °F -39.2 °F -32.8 °F 75% 30.03 in 10.0 mi NW 3.5 mph - N/A   Scattered Clouds
10:53 AM -25.1 °F -47.4 °F -31.0 °F 74% 30.05 in 3.0 mi WNW 10.4 mph - N/A   Partly Cloudy
11:12 AM -25.6 °F -37.1 °F -29.2 °F 83% 30.06 in 5.0 mi NW 3.5 mph - N/A   Partly Cloudy
11:53 AM -24.0 °F - -27.0 °F 86% 30.07 in 10.0 mi Calm Calm - N/A   Clear
12:53 PM -23.1 °F -36.8 °F -27.9 °F 78% 30.09 in 9.0 mi West 4.6 mph - 0.00 in   Clear
1:53 PM -20.0 °F -30.7 °F -25.1 °F 78% 30.10 in 10.0 mi West 3.5 mph - N/A   Clear
2:53 PM -18.0 °F -34.7 °F -24.0 °F 74% 30.09 in 10.0 mi West 6.9 mph - N/A   Clear
3:53 PM -17.0 °F -27.2 °F -23.1 °F 74% 30.11 in 10.0 mi WNW 3.5 mph - N/A   Clear
4:53 PM -18.0 °F - -23.1 °F 78% 30.10 in 10.0 mi Calm Calm - N/A   Clear
5:53 PM -20.0 °F -39.9 °F -25.1 °F 78% 30.11 in 10.0 mi WSW 9.2 mph - 0.00 in   Clear
6:53 PM -22.0 °F -41.0 °F -27.0 °F 77% 30.11 in 10.0 mi West 8.1 mph - N/A   Clear
7:53 PM -25.1 °F -39.1 °F -27.9 °F 86% 30.11 in 6.0 mi SSW 4.6 mph - N/A   Clear
8:53 PM -26.0 °F -42.4 °F -31.0 °F 77% 30.12 in 10.0 mi SW 5.8 mph - N/A   Clear
9:53 PM -26.0 °F -37.5 °F -31.0 °F 77% 30.14 in 10.0 mi SW 3.5 mph - N/A   Clear
10:53 PM -27.9 °F - -34.1 °F 73% 30.14 in 10.0 mi Calm Calm - N/A   Clear
11:53 PM -27.9 °F -39.8 °F -32.1 °F 81% 30.14 in 10.0 mi East 3.5 mph - N/A   Clear